Weather History for Ely, MN

Change the Weather History Date:

Saturday, April 26, 2014

  Actual Average Record
Temperature  
Mean Temperature 38 °F -  
Max Temperature 46 °F 55 °F 71 °F (1999)
Min Temperature 30 °F 28 °F 21 °F (2002)
Degree Days  
Heating Degree Days 27    
Moisture  
Dew Point 24 °F    
Average Humidity 67    
Maximum Humidity 93    
Minimum Humidity 34    
Precipitation  
Precipitation 0.00 in - - ()
Sea Level Pressure  
Sea Level Pressure 30.07 in    
Wind  
Wind Speed 6 mph (East)    
Max Wind Speed 15 mph    
Max Gust Speed 18 mph    
Visibility 10 miles    
Events Snow    
Averages and records for this station are not official NWS values.
T = Trace of Precipitation, MM = Missing Value Source: NWS Daily Summary

Daily Weather History Graph

Daily Weather History Graph

Search for Another Location

Airport:

Trip Planner

Search our weather history database for the weather conditions in past years. The results will help you decide how hot, cold, wet, or windy it might be!

Date:

Astronomy

Apr. 26, 2014 Rise Set
Actual Time 5:58 AM CDT 8:13 PM CDT
Civil Twilight 5:24 AM CDT 8:47 PM CDT
Nautical Twilight 4:42 AM CDT 9:29 PM CDT
Astronomical Twilight 3:54 AM CDT 10:17 PM CDT
Moon 4:35 AM CDT (4/26) 5:30 PM CDT (4/26)
Length of Visible Light 15h 22m
Length of Day
14h 15m
Waning Crescent, 8% of the Moon is Illuminated
Apr 26
Waning Crescent
Apr 29
New
May 6
First Quarter
May 14
Full
May 21
Last Quarter

Hourly Weather History & Observations

Time (CDT) Temp. Windchill Dew Point Humidity Pressure Visibility Wind Dir Wind Speed Gust Speed Precip Events Conditions
12:13 AM 30.2 °F 25.4 °F 28.4 °F 93% 29.97 in 10.0 mi NE 4.6 mph - N/A   Overcast
12:33 AM 30.2 °F 26.7 °F 28.4 °F 93% 29.98 in 10.0 mi NE 3.5 mph - N/A   Mostly Cloudy
12:52 AM 30.2 °F 26.7 °F 28.4 °F 93% 29.98 in 10.0 mi NE 3.5 mph - N/A   Mostly Cloudy
1:13 AM 30.2 °F 22.6 °F 28.4 °F 93% 29.99 in 7.0 mi ENE 8.1 mph - N/A Snow Light Snow
1:33 AM 30.2 °F 24.3 °F 28.4 °F 93% 29.98 in 7.0 mi ENE 5.8 mph - N/A Snow Light Snow
1:53 AM 30.2 °F 26.7 °F 28.4 °F 93% 29.99 in 10.0 mi ENE 3.5 mph - N/A   Mostly Cloudy
2:12 AM 30.2 °F - 28.4 °F 93% 29.99 in 10.0 mi Calm Calm - N/A   Overcast
2:33 AM 30.2 °F 23.4 °F 28.4 °F 93% 30.00 in 10.0 mi East 6.9 mph - N/A   Overcast
2:53 AM 30.2 °F 25.4 °F 26.6 °F 86% 30.00 in 10.0 mi ENE 4.6 mph - N/A   Overcast
3:12 AM 30.2 °F 24.3 °F 26.6 °F 86% 30.01 in 10.0 mi ENE 5.8 mph - N/A   Overcast
3:33 AM 30.2 °F 26.7 °F 28.4 °F 93% 30.01 in 7.0 mi NE 3.5 mph - N/A   Overcast
3:53 AM 30.2 °F - 28.4 °F 93% 30.01 in 4.0 mi Calm Calm - N/A Snow Light Snow
4:12 AM 30.2 °F 25.4 °F 28.4 °F 93% 30.02 in 4.0 mi ENE 4.6 mph - N/A Snow Light Snow
4:33 AM 30.2 °F 24.3 °F 26.6 °F 86% 30.02 in 10.0 mi ENE 5.8 mph - N/A   Overcast
4:53 AM 30.2 °F 25.4 °F 26.6 °F 86% 30.03 in 10.0 mi East 4.6 mph - N/A   Overcast
5:12 AM 30.2 °F 26.7 °F 26.6 °F 86% 30.03 in 10.0 mi ENE 3.5 mph - N/A   Overcast
5:33 AM 30.2 °F 22.6 °F 26.6 °F 86% 30.05 in 10.0 mi ENE 8.1 mph - N/A   Overcast
5:53 AM 30.2 °F 23.4 °F 26.6 °F 86% 30.05 in 10.0 mi NE 6.9 mph - N/A   Overcast
6:12 AM 30.2 °F 26.7 °F 26.6 °F 86% 30.06 in 10.0 mi ENE 3.5 mph - N/A   Overcast
6:33 AM 30.2 °F 25.4 °F 26.6 °F 86% 30.06 in 10.0 mi ENE 4.6 mph - N/A   Overcast
6:53 AM 30.2 °F 25.4 °F 26.6 °F 86% 30.06 in 10.0 mi NE 4.6 mph - N/A   Overcast
7:12 AM 30.2 °F 24.3 °F 26.6 °F 86% 30.07 in 10.0 mi East 5.8 mph - N/A   Overcast
7:33 AM 30.2 °F 26.7 °F 26.6 °F 86% 30.07 in 10.0 mi ENE 3.5 mph - N/A   Overcast
7:53 AM 30.2 °F 24.3 °F 26.6 °F 86% 30.08 in 10.0 mi East 5.8 mph - N/A   Overcast
8:12 AM 30.2 °F 23.4 °F 26.6 °F 86% 30.07 in 10.0 mi ENE 6.9 mph - N/A   Overcast
8:33 AM 30.2 °F 24.3 °F 26.6 °F 86% 30.07 in 10.0 mi ENE 5.8 mph - N/A   Overcast
8:53 AM 30.2 °F 24.3 °F 26.6 °F 86% 30.06 in 10.0 mi ENE 5.8 mph - N/A   Overcast
9:12 AM 30.2 °F 22.6 °F 26.6 °F 86% 30.06 in 10.0 mi ENE 8.1 mph - N/A   Mostly Cloudy
9:33 AM 33.8 °F 28.6 °F 26.6 °F 75% 30.08 in 10.0 mi ESE 5.8 mph - N/A   Overcast
9:52 AM 33.8 °F 26.4 °F 26.6 °F 75% 30.08 in 10.0 mi ESE 9.2 mph - N/A   Scattered Clouds
10:13 AM 33.8 °F 28.6 °F 26.6 °F 75% 30.10 in 10.0 mi East 5.8 mph - N/A   Mostly Cloudy
10:33 AM 35.6 °F 30.7 °F 26.6 °F 70% 30.11 in 10.0 mi SE 5.8 mph - N/A   Mostly Cloudy
10:52 AM 37.4 °F 31.4 °F 28.4 °F 70% 30.11 in 10.0 mi SE 8.1 mph - N/A   Mostly Cloudy
11:13 AM 37.4 °F 32.8 °F 26.6 °F 65% 30.11 in 10.0 mi ENE 5.8 mph - N/A   Mostly Cloudy
11:33 AM 39.2 °F 35.0 °F 28.4 °F 65% 30.11 in 10.0 mi SE 5.8 mph - N/A   Mostly Cloudy
11:52 AM 39.2 °F - 26.6 °F 61% 30.11 in 10.0 mi Calm Calm - N/A   Overcast
12:13 PM 39.2 °F 37.0 °F 26.6 °F 61% 30.11 in 10.0 mi South 3.5 mph - N/A   Overcast
12:33 PM 41.0 °F 39.0 °F 26.6 °F 57% 30.11 in 10.0 mi SSE 3.5 mph - N/A   Overcast
12:52 PM 41.0 °F 36.4 °F 26.6 °F 57% 30.09 in 10.0 mi SE 6.9 mph - N/A   Overcast
1:13 PM 42.8 °F 37.0 °F 26.6 °F 53% 30.09 in 10.0 mi ESE 10.4 mph - N/A   Overcast
1:33 PM 42.8 °F 40.1 °F 26.6 °F 53% 30.09 in 10.0 mi SE 4.6 mph - N/A   Overcast
1:53 PM 42.8 °F 39.3 °F 26.6 °F 53% 30.09 in 10.0 mi ESE 5.8 mph 16.1 mph N/A   Overcast
2:13 PM 42.8 °F 38.0 °F 24.8 °F 49% 30.08 in 10.0 mi ESE 8.1 mph - N/A   Overcast
2:33 PM 44.6 °F 40.2 °F 24.8 °F 46% 30.08 in 10.0 mi East 8.1 mph 18.4 mph N/A   Mostly Cloudy
2:52 PM 44.6 °F 39.2 °F 24.8 °F 46% 30.08 in 10.0 mi East 10.4 mph - N/A   Mostly Cloudy
3:13 PM 46.4 °F 41.5 °F 23.0 °F 40% 30.08 in 10.0 mi SSE 10.4 mph 16.1 mph N/A   Mostly Cloudy
3:33 PM 44.6 °F 39.2 °F 23.0 °F 43% 30.08 in 10.0 mi East 10.4 mph - N/A   Scattered Clouds
3:52 PM 46.4 °F 40.7 °F 21.2 °F 37% 30.08 in 10.0 mi ESE 12.7 mph - N/A   Clear
4:13 PM 46.4 °F 40.4 °F 23.0 °F 40% 30.07 in 10.0 mi SE 13.8 mph 17.3 mph N/A   Clear
4:32 PM 46.4 °F 40.4 °F 21.2 °F 37% 30.08 in 10.0 mi SE 13.8 mph - N/A   Clear
4:53 PM 46.4 °F 41.5 °F 21.2 °F 37% 30.07 in 10.0 mi SE 10.4 mph 16.1 mph N/A   Clear
5:13 PM 44.6 °F 39.2 °F 19.4 °F 37% 30.07 in 10.0 mi ESE 10.4 mph - N/A   Clear
5:32 PM 44.6 °F 37.8 °F 19.4 °F 37% 30.06 in 10.0 mi SE 15.0 mph - N/A   Clear
5:53 PM 44.6 °F 38.4 °F 19.4 °F 37% 30.07 in 10.0 mi ESE 12.7 mph - N/A   Clear
6:13 PM 44.6 °F 40.2 °F 17.6 °F 34% 30.08 in 10.0 mi ESE 8.1 mph - N/A   Clear
6:33 PM 42.8 °F 36.6 °F 19.4 °F 39% 30.08 in 10.0 mi SE 11.5 mph - N/A   Clear
6:53 PM 42.8 °F 36.2 °F 17.6 °F 36% 30.08 in 10.0 mi SE 12.7 mph - N/A   Clear
7:13 PM 41.0 °F 33.5 °F 17.6 °F 39% 30.08 in 10.0 mi SE 13.8 mph - N/A   Clear
7:33 PM 39.2 °F 32.0 °F 17.6 °F 42% 30.08 in 10.0 mi SE 11.5 mph - N/A   Clear
7:53 PM 37.4 °F 31.4 °F 19.4 °F 48% 30.08 in 10.0 mi SE 8.1 mph - N/A   Clear
8:13 PM 35.6 °F 28.6 °F 19.4 °F 52% 30.08 in 10.0 mi ESE 9.2 mph - N/A   Clear
8:32 PM 35.6 °F 29.2 °F 19.4 °F 52% 30.08 in 10.0 mi ESE 8.1 mph - N/A   Clear
8:53 PM 35.6 °F 28.6 °F 17.6 °F 48% 30.08 in 10.0 mi ESE 9.2 mph - N/A   Clear
9:13 PM 33.8 °F 26.4 °F 19.4 °F 56% 30.08 in 10.0 mi ESE 9.2 mph - N/A   Clear
9:32 PM 32.0 °F 26.4 °F 19.4 °F 60% 30.10 in 10.0 mi ESE 5.8 mph - N/A   Clear
9:53 PM 30.2 °F 24.3 °F 19.4 °F 64% 30.11 in 10.0 mi SE 5.8 mph - N/A   Clear
10:12 PM 32.0 °F 27.5 °F 19.4 °F 60% 30.11 in 10.0 mi ESE 4.6 mph - N/A   Clear
10:33 PM 30.2 °F 24.3 °F 19.4 °F 64% 30.13 in 10.0 mi SE 5.8 mph - N/A   Clear
10:53 PM 30.2 °F 25.4 °F 19.4 °F 64% 30.14 in 10.0 mi ESE 4.6 mph - N/A   Clear
11:13 PM 30.2 °F 26.7 °F 19.4 °F 64% 30.14 in 10.0 mi ESE 3.5 mph - N/A   Clear
11:33 PM 30.2 °F 26.7 °F 19.4 °F 64% 30.14 in 10.0 mi ESE 3.5 mph - N/A   Clear
11:53 PM 30.2 °F - 19.4 °F 64% 30.15 in 10.0 mi Calm Calm - N/A   Clear